Flag for Norway Weather past 2 weeks in Eidsvoll, Norway

Now
55 °F

Clear.


Feels Like: 54 °F
Forecast: 56 / 66 °F
Wind: 6 mph from South

Location: Oslo Gardermoen Airport

Current Time: Jul 2, 2015 at 3:51:41 AM

Latest Report: Jul 2, 2015 at 3:20 AM


Visibility: 10 mi

Pressure: 30.30 "Hg

Humidity: 77%

Dew point: 48 °F

Location of EidsvollLocation

Historic Weather in Eidsvoll — Graph

°F

Eidsvoll temperature yesterday

Maximum temperature yesterday: 79 °F (at 3:20 PM)
Minimum temperature yesterday: 59 °F (at 4:20 AM)
Average temperature yesterday: 69 °F

Past Weeks' High & Low Weather Summary

 TemperatureHumidityPressure
High79 °F (Jul 1, 3:20 PM)100% (Jun 22, 1:20 AM)30.30 "Hg (Jun 22, 1:20 AM)
Low45 °F (Jun 17, 3:50 AM)29% (Jun 20, 4:50 PM)29.59 "Hg (Jun 18, 3:50 AM)
Average58 °F68%29.85 "Hg
* Reported Jun 17 2:20 AM — Jul 2 2:50 AM, Eidsvoll, Weather by CustomWeather, © 2015

Note: Actual official high and low records may vary slightly from our data, if they occured in-between our weather recording intervals... More about our weather records

Advertising

Eidsvoll weather history for previous 24 hours

 ConditionsComfort  
Time TempWeatherWind HumidityBarometerVisibility
2:50 AM
Thu, Jul 2
57 °FClear.8 mph72%30.30 "Hg10 mi
2:20 AM59 °FClear.7 mph68%30.30 "Hg10 mi
1:50 AM59 °FClear.7 mph68%30.27 "Hg10 mi
1:20 AM61 °FClear.7 mph63%30.27 "Hg10 mi
12:50 AM59 °FClear.6 mph68%30.27 "Hg10 mi
12:20 AM61 °FClear.7 mph59%30.27 "Hg10 mi
11:50 PM
Wed, Jul 1
61 °FClear.8 mph59%30.27 "Hg10 mi
10:50 PM64 °FSunny.8 mph52%30.24 "Hg10 mi
10:20 PM66 °FSunny.10 mph49%30.24 "Hg10 mi
9:50 PM68 °FPassing clouds.10 mph49%30.24 "HgN/A
9:20 PM72 °FSunny.10 mph44%30.21 "Hg10 mi
8:50 PM73 °FPassing clouds.10 mph44%30.21 "HgN/A
8:20 PM73 °FPassing clouds.10 mph41%30.21 "HgN/A
7:50 PM75 °FSunny.12 mph41%30.21 "Hg10 mi
7:20 PM77 °FPassing clouds.12 mph44%30.21 "HgN/A
6:50 PM77 °FSunny.14 mph44%30.21 "Hg10 mi
6:20 PM79 °FSunny.12 mph42%30.21 "Hg10 mi
5:50 PM79 °FPassing clouds.14 mph45%30.18 "HgN/A
5:20 PM79 °FSunny.15 mph42%30.18 "Hg10 mi
4:50 PM79 °FSunny.17 mph42%30.18 "Hg10 mi
4:20 PM79 °FSunny.17 mph42%30.18 "Hg10 mi
3:50 PM79 °FSunny.15 mph45%30.18 "Hg10 mi
3:20 PM79 °FPassing clouds.12 mph45%30.18 "HgN/A
2:50 PM77 °FSunny.14 mph47%30.18 "Hg10 mi
2:20 PM77 °FPassing clouds.12 mph47%30.18 "HgN/A
1:50 PM77 °FPassing clouds.12 mph47%30.18 "HgN/A
1:20 PM75 °FPassing clouds.12 mph50%30.18 "HgN/A
12:50 PM75 °FPassing clouds.12 mph50%30.18 "HgN/A
12:20 PM75 °FPassing clouds.9 mph50%30.21 "HgN/A
11:50 AM73 °FPassing clouds.8 mph50%30.21 "HgN/A
11:20 AM72 °FPassing clouds.8 mph53%30.21 "HgN/A
10:50 AM72 °FPassing clouds.8 mph50%30.21 "HgN/A
10:20 AM68 °FPassing clouds.6 mph56%30.21 "HgN/A
9:50 AM68 °FPassing clouds.6 mph56%30.18 "HgN/A
9:20 AM66 °FPassing clouds.7 mph56%30.18 "HgN/A
8:50 AM66 °FPassing clouds.7 mph60%30.18 "HgN/A
8:20 AM63 °FPassing clouds.6 mph64%30.18 "HgN/A
7:50 AM61 °FPassing clouds.5 mph68%30.18 "HgN/A
7:20 AM61 °FSunny.2 mph72%30.18 "Hg10 mi
6:50 AM61 °FSunny.5 mph68%30.18 "Hg10 mi
6:20 AM61 °FSunny.No wind68%30.18 "Hg10 mi
5:50 AM61 °FSunny.No wind68%30.18 "Hg10 mi
5:20 AM59 °FSunny.No wind72%30.15 "Hg10 mi
4:50 AM59 °FClear.1 mph72%30.18 "Hg10 mi
4:20 AM59 °FClear.5 mph72%30.15 "Hg10 mi
3:50 AM61 °FClear.5 mph68%30.15 "Hg10 mi
3:20 AM61 °FClear.5 mph68%30.15 "Hg10 mi
Weather by CustomWeather, © 2015

See weather overviewHow to use our weather pages